Notices

What's New in latest Release from April 7th, 2021:

- Updated Glossary, including Speed of Maximum Gust, and Total Hourly Precipitation

- Updated national and regional climate services offices contacts and prices information

- Addition of station inventory lists for 1981-2010, 1971-2000, and 1961-1990 Normals.

If you haven't already, please take our survey and provide feedback about our website: https://eccc.sondage-survey.ca/f/LanguageSelection.aspx?s=442ca660-fcf1-47c0-95a9-59707d6fd709

Hourly Data Report for July 03, 2019

TORONTO CITY
ONTARIO
Current Station Operator: ECCC - MSC

43°40'00.000" N
79°24'00.000" W
112.50 m
6158355
71508
XTO

Download Data

Hourly Data (July 2019)
Hourly Data Report for July 3, 2019
TIME
LST
Temp Definition
°C
Dew Point Definition
°C
Rel Hum Definition
%
Precip. Amount Definition
mm

Wind Dir Definition
10's deg

Wind Spd Definition
km/h
Visibility Definition
km
Stn Press Definition
kPa
Hmdx Definition


Wind Chill Definition


Weather Definition


00:00 21.2 17.6 80 0.0       99.68 27   LegendNANA
01:00 22.2 16.7 71 0.0       99.66 27   LegendNANA
02:00 21.3 15.3 69 0.0       99.68 25   LegendNANA
03:00 20.5 15.9 75 0.0       99.68 25   LegendNANA
04:00 20.1 16.3 79 0.0       99.69 25   LegendNANA
05:00 20.0 16.6 81 0.0       99.75 25   LegendNANA
06:00 20.1 17.2 83 0.0       99.83 26   LegendNANA
07:00 20.9 17.7 82 0.0       99.87 27   LegendNANA
08:00 22.6 17.2 71 0.0       99.90 28   LegendNANA
09:00 25.3 17.9 64 0.0       99.89 31   LegendNANA
10:00 26.4 17.3 57 0.0       99.92 32   LegendNANA
11:00 26.3 17.5 58 0.0       99.93 32   LegendNANA
12:00 26.4 16.8 56 0.0       99.96 32   LegendNANA
13:00 26.0 17.2 58 0.0       99.97 31   LegendNANA
14:00 27.2 17.8 56 0.0       99.92 33   LegendNANA
15:00 27.8 16.3 50 0.0       99.93 33   LegendNANA
16:00 27.9 16.2 49 0.0       99.91 33   LegendNANA
17:00 27.7 13.3 41 0.0       99.89 31   LegendNANA
18:00 27.4 12.3 39 0.0       99.89 30   LegendNANA
19:00 26.7 11.6 39 0.0       99.92 29   LegendNANA
20:00 24.7 13.4 49 0.0       99.98 28   LegendNANA
21:00 23.3 14.1 56 0.0       100.06 27   LegendNANA
22:00 22.8 14.6 60 0.0       100.11 27   LegendNANA
23:00 22.8 13.6 56 0.0       100.17 26   LegendNANA

Notes on Data Quality.

Legend

  • E = Estimated
  • M = Missing
  • NA = Not Available*
  • [empty] = Indicates an unobserved value
Date modified: